Home   Weather   Prenzlau   Past weeks

Flag for Germany Past Weather in Prenzlau, Brandenburg, Germany — Yesterday and Last 2 Weeks

46 °F

Broken clouds.

Feels Like: 45 °F
Forecast: 42 / 53 °F
Wind: 3 mph from East

Location: Szczecin Airport

Current Time: Oct 24, 2016 at 10:57:35 AM

Latest Report: Oct 24, 2016 at 10:00 AM

Visibility: 4 mi

Pressure: 30.07 "Hg

Humidity: 93%

Dew Point: 45 °F

Location of PrenzlauLocation

Past Weather in Prenzlau — Graph


Prenzlau Temperature Yesterday

Maximum temperature yesterday: 46 °F (at 2:30 PM)
Minimum temperature yesterday: 32 °F (at 4:30 AM)
Average temperature yesterday: 41 °F

High & Low Weather Summary for the Past Weeks

High52 °F (Oct 9, 12:00 PM)100% (Oct 9, 11:00 PM)30.36 "Hg (Oct 9, 11:00 PM)
Low32 °F (Oct 23, 4:30 AM)62% (Oct 14, 1:30 PM)29.89 "Hg (Oct 21, 6:00 AM)
Average44 °F90%30.11 "Hg
* Reported Oct 9 9:00 AM — Oct 24 9:30 AM, Prenzlau, Weather by CustomWeather, © 2016

Note: Actual official high and low records may vary slightly from our data, if they occured in-between our weather recording intervals... More about our weather records


Prenzlau Weather History for the Previous 24 Hours

Scroll right to see more
Time TempWeatherWind HumidityBarometerVisibility
9:30 AM
Mon, Oct 24
46 °FFog.5 mph93%30.04 "Hg3 mi
9:00 AM46 °FFog.3 mph87%30.04 "Hg3 mi
8:30 AM46 °FFog.3 mph93%30.04 "Hg3 mi
8:00 AM45 °FFog.5 mph93%30.04 "Hg3 mi
7:30 AM45 °FFog.6 mph100%30.04 "Hg2 mi
7:00 AM45 °FFog.5 mph100%30.04 "Hg2 mi
6:30 AM45 °FFog.6 mph100%30.04 "Hg2 mi
6:00 AM45 °FFog.5 mph93%30.04 "Hg2 mi
5:30 AM45 °FFog.6 mph93%30.04 "Hg2 mi
5:00 AM45 °FFog.6 mph93%30.04 "Hg2 mi
4:30 AM45 °FFog.7 mph93%30.04 "Hg2 mi
4:00 AM45 °FFog.7 mph93%30.04 "Hg2 mi
3:30 AM45 °FFog.6 mph93%30.04 "Hg2 mi
3:00 AM45 °FFog.5 mph93%30.07 "Hg1 mi
2:30 AM45 °FFog.5 mph93%30.07 "Hg2 mi
2:00 AM45 °FFog.7 mph93%30.04 "Hg2 mi
1:30 AM45 °FFog.7 mph93%30.04 "Hg2 mi
1:00 AM45 °FFog.6 mph93%30.07 "Hg2 mi
12:30 AM45 °FFog.6 mph93%30.07 "Hg2 mi
12:00 AM45 °FFog.6 mph93%30.04 "Hg2 mi
11:30 PM
Sun, Oct 23
45 °FFog.6 mph93%30.07 "Hg2 mi
11:00 PM45 °FFog.7 mph93%30.07 "Hg2 mi
10:30 PM43 °FFog.5 mph93%30.07 "Hg3 mi
10:00 PM43 °FFog.8 mph93%30.07 "Hg3 mi
9:30 PM43 °FFog.9 mph93%30.07 "Hg3 mi
9:00 PM43 °FFog.8 mph93%30.07 "Hg3 mi
8:30 PM43 °FClear.7 mph93%30.07 "Hg4 mi
8:00 PM43 °FFog.7 mph93%30.07 "Hg4 mi
7:30 PM43 °FFog.7 mph93%30.07 "Hg4 mi
7:00 PM43 °FFog.7 mph93%30.07 "Hg4 mi
6:30 PM43 °FFog.6 mph93%30.07 "Hg4 mi
6:00 PM45 °FClear.6 mph93%30.07 "Hg5 mi
5:30 PM45 °FClear.5 mph93%30.04 "Hg5 mi
5:00 PM46 °FPartly sunny.3 mph87%30.07 "Hg5 mi
4:30 PM46 °FBroken clouds.5 mph87%30.07 "Hg5 mi
4:00 PM46 °FScattered clouds.6 mph87%30.04 "Hg5 mi
3:30 PM46 °FScattered clouds.5 mph87%30.04 "Hg5 mi
3:00 PM46 °FPartly sunny.6 mph87%30.04 "Hg5 mi
2:30 PM46 °FBroken clouds.3 mph87%30.04 "Hg5 mi
2:00 PM45 °FBroken clouds.8 mph93%30.04 "Hg4 mi
1:30 PM45 °FLow clouds.7 mph93%30.04 "Hg5 mi
1:00 PM45 °FMore clouds than sun.8 mph93%30.04 "Hg5 mi
12:30 PM45 °FPartly sunny.8 mph93%30.07 "Hg5 mi
12:00 PM45 °FPartly sunny.9 mph93%30.04 "Hg5 mi
11:30 AM45 °FBroken clouds.7 mph93%30.04 "Hg5 mi
11:00 AM45 °FBroken clouds.7 mph87%30.04 "Hg5 mi
10:30 AM45 °FPassing clouds.5 mph87%30.04 "Hg5 mi
10:00 AM43 °FPassing clouds.6 mph93%30.04 "Hg4 mi
Weather by CustomWeather, © 2016

See weather overviewHow to use our weather pages